Theta_e
333 333 329 329 325 331 339 333 329 330 333 337 335 334 337 336 337 337 338 337 337 339 337 338 332 333 335 335 333 331 330 329 329 330 336 340 343 345 345 340 330 331 334
333 333 334 333 326 325 329 330 334 334 335 336 335 336 337 338 338 337 339 341 341 341 340 338 332 329 330 328 331 335 335 341 337 335 332 335 339 339 340 334 330 330 330
332 334 333 335 330 328 328 334 336 334 335 335 336 336 337 338 338 337 339 341 341 342 340 339 338 338 336 335 340 344 344 345 346 345 336 331 332 331 330 329 329 332 334
337 337 336 335 335 332 327 328 335 337 337 337 336 338 338 339 340 338 340 341 342 342 338 339 338 336 336 342 343 345 346 347 346 347 344 337 340 334 330 336 337 337 336
339 338 335 335 335 334 332 334 335 336 336 338 338 337 339 340 340 340 339 339 337 338 340 331 331 330 339 342 343 343 347 347 345 344 343 333 333 338 331 331 332 332 331
342 339 333 333 330 333 334 335 336 335 333 336 334 337 339 341 340 337 340 339 336 332 330 330 331 333 330 339 344 344 342 341 342 343 343 330 328 332 333 334 336 338 341
341 338 331 334 331 334 333 333 335 335 337 338 331 330 338 338 339 334 333 334 331 326 326 329 332 330 334 343 343 343 344 343 342 342 331 331 333 335 339 342 342 341 339
337 335 329 332 334 336 336 336 337 334 334 337 335 338 331 337 337 334 333 328 327 327 326 326 328 330 328 330 343 346 346 344 343 341 333 333 340 342 339 338 339 340 341
339 333 331 332 335 337 336 334 333 334 333 331 330 332 332 335 336 335 332 333 333 330 327 326 324 323 323 330 343 344 345 345 344 337 337 342 337 336 337 339 341 342 342
342 334 331 336 336 336 335 335 334 333 332 334 331 328 327 330 333 335 334 332 333 332 329 327 325 328 337 337 339 339 340 341 339 338 340 335 336 337 339 341 342 342 342
343 344 338 339 334 336 335 333 334 333 329 329 338 341 338 332 329 333 336 332 334 330 329 334 333 339 341 342 342 340 340 341 340 338 334 335 336 338 339 341 342 341 340
343 342 343 343 341 336 332 333 331 339 341 343 344 343 342 342 332 334 336 333 332 330 342 345 345 345 345 345 342 340 342 343 340 335 333 335 336 339 341 341 341 341 342
340 333 338 343 345 335 335 341 340 340 341 344 343 345 342 339 336 330 336 333 331 339 345 347 347 346 346 348 344 341 341 339 340 331 334 335 338 340 341 342 345 347 347
341 336 337 343 342 341 342 340 340 339 344 345 345 343 341 342 344 345 340 338 340 344 347 346 345 347 345 346 341 342 340 340 340 334 333 336 339 341 344 345 344 344 344
344 342 341 342 342 342 344 344 342 341 340 340 340 342 343 342 345 345 345 343 342 344 345 346 348 343 344 343 341 342 342 341 340 336 333 338 341 342 342 344 344 344 344
345 346 345 344 343 341 333 342 344 343 344 339 336 342 346 342 346 346 344 346 346 344 346 347 346 346 344 343 343 341 340 342 343 343 341 345 346 346 347 350 349 349 345
346 346 344 344 343 344 343 342 342 341 343 345 344 338 345 343 346 346 345 344 346 348 350 348 348 348 344 341 343 343 342 340 342 344 345 348 348 348 349 351 352 350 349
347 345 343 343 342 344 343 342 341 343 345 344 342 337 337 341 346 346 345 346 344 344 343 343 345 345 342 343 343 343 342 343 336 341 347 347 345 345 350 351 352 351 349
346 343 343 343 340 341 344 345 342 345 345 343 344 344 341 345 344 345 342 346 345 344 345 346 348 348 347 342 344 345 344 344 345 342 346 346 346 348 349 351 349 352 350
346 344 346 344 343 342 345 346 343 343 345 344 346 345 344 345 343 344 334 333 337 341 345 346 349 348 344 347 347 344 345 346 346 345 344 345 331 340 344 351 350 346 349
344 343 347 345 345 342 345 344 340 343 343 345 344 345 342 346 349 339 340 329 333 339 340 345 348 348 347 348 345 345 345 345 344 344 344 344 344 348 350 349 345 341 341
345 346 345 345 343 344 346 347 344 344 346 347 347 344 341 346 348 345 340 333 337 339 345 345 347 346 346 346 339 334 334 335 337 334 335 335 340 346 348 348 347 347 345
344 342 345 344 345 345 346 346 347 346 346 346 345 345 347 347 345 342 344 331 338 336 343 346 332 345 339 344 341 340 340 337 337 338 336 337 341 345 346 347 341 346 341
345 340 343 344 344 344 345 346 345 345 346 346 348 348 344 346 349 349 346 339 340 337 342 347 349 345 345 340 335 335 339 340 342 343 344 343 338 342 341 347 344 348 346
345 344 343 342 343 341 343 344 346 344 347 348 344 348 349 344 346 349 349 347 346 346 349 351 344 347 344 343 346 343 346 344 345 346 346 346 344 346 343 346 347 347 346
345 346 346 345 344 342 345 346 344 344 346 345 347 346 347 344 345 345 351 350 344 343 344 348 348 349 350 345 345 346 348 346 348 347 341 344 342 346 346 347 343 345 342
Wind_Speed
22 25 25 23 30 23 24 26 23 21 16 13 14 16 17 17 17 18 18 16 16 16 16 17 15 16 17 17 16 16 16 15 13 13 16 17 17 17 17 14 12 14 14
26 26 21 19 26 23 25 26 15 14 14 15 15 16 18 18 18 18 17 17 16 17 17 18 18 18 18 19 19 20 22 22 21 18 13 14 15 16 14 11 11 13 12
24 22 19 18 24 23 24 15 15 17 16 17 17 17 17 18 18 18 18 18 19 19 18 18 18 19 20 22 22 23 22 22 20 20 14 13 13 13 10 10 11 13 12
20 20 20 19 21 24 24 20 18 18 18 18 18 17 18 18 18 18 18 18 18 17 17 18 18 19 21 23 21 20 19 20 18 12 8 9 10 10 10 11 11 10 11
19 16 19 20 23 22 22 19 19 18 18 18 17 17 19 19 18 17 17 17 17 17 16 16 16 19 21 20 20 19 21 19 15 10 5 6 6 9 11 11 10 9 9
15 12 15 19 21 20 20 19 18 17 17 17 16 17 18 17 17 17 16 16 16 16 15 16 17 18 20 21 19 19 18 17 11 5 2 4 6 8 10 11 10 10 9
14 16 17 18 18 17 18 18 17 17 16 16 16 17 17 17 17 16 16 16 15 15 15 15 16 17 19 20 21 19 15 13 10 4 3 5 8 11 12 12 11 11 12
18 17 19 18 17 16 17 17 17 16 16 15 15 16 16 16 15 15 15 16 18 17 16 15 14 14 15 18 19 17 15 15 6 5 6 8 11 12 13 13 12 12 13
12 17 19 18 17 16 16 16 15 15 15 15 15 14 15 14 14 13 14 16 17 16 15 15 15 15 15 17 17 17 16 10 5 8 8 9 12 13 13 13 12 12 12
12 16 16 15 15 15 16 15 14 14 15 16 18 16 14 13 13 12 13 13 14 15 15 16 18 20 22 20 18 18 17 11 9 9 7 10 12 12 12 11 11 11 11
20 17 15 12 15 13 14 16 17 16 18 21 22 20 17 11 10 12 12 12 12 14 17 18 20 20 19 17 13 10 11 11 6 4 6 10 11 10 10 10 10 10 10
22 20 15 14 10 12 16 18 21 23 19 15 11 15 14 10 8 9 10 10 11 15 14 13 12 8 8 11 13 11 10 11 6 2 6 9 9 9 9 9 10 10 10
17 14 23 22 19 14 17 16 19 18 12 6 10 14 11 9 7 8 10 11 11 15 10 9 8 7 5 3 10 10 12 6 2 2 5 7 8 8 8 8 9 10 11
14 12 15 17 20 16 16 16 13 16 17 10 9 18 11 9 8 9 9 6 7 7 7 7 7 5 5 5 5 8 12 10 2 3 4 7 8 8 8 8 10 12 13
14 19 19 21 17 17 15 12 13 14 12 9 12 13 9 6 9 3 3 6 4 4 6 4 8 9 10 8 6 8 8 8 1 4 5 7 9 9 9 9 12 15 14
20 21 20 16 15 9 7 16 13 14 14 9 10 8 11 7 4 4 6 8 5 5 5 1 3 4 6 4 3 2 7 4 4 1 4 6 7 7 7 9 12 14 14
18 21 17 16 15 14 15 15 12 15 14 8 5 6 7 8 6 7 5 6 5 5 7 5 5 3 6 6 6 3 2 7 8 2 4 8 8 5 5 5 10 11 12
26 19 16 12 16 15 14 14 18 9 13 9 3 4 6 8 4 5 5 5 5 4 7 8 6 7 10 2 5 7 3 6 3 2 5 7 13 8 5 4 9 11 11
21 16 14 12 13 21 20 13 11 11 13 7 5 7 7 7 3 4 4 5 8 4 12 8 2 5 6 8 2 6 7 6 4 5 11 17 14 16 9 1 8 8 11
21 18 16 15 12 15 12 11 17 9 9 13 7 9 7 6 1 5 12 3 4 9 10 7 5 3 5 3 8 11 5 5 6 6 10 20 22 31 9 5 7 12 10
18 21 22 18 15 14 12 12 11 18 11 9 10 9 6 9 2 3 2 5 6 11 9 4 0 2 5 2 3 5 5 5 6 11 16 23 17 14 6 10 13 15 12
23 24 18 19 14 14 14 11 12 15 12 8 2 3 9 3 5 6 7 16 15 11 5 3 8 3 6 3 3 2 9 11 6 9 8 14 9 7 4 5 10 8 9
23 26 23 21 18 19 17 14 12 13 13 11 9 3 10 6 4 3 5 12 5 11 10 8 2 5 7 3 2 6 5 9 16 6 8 18 6 3 3 4 9 3 9
26 26 23 21 17 20 18 15 12 12 14 11 9 8 12 10 4 4 1 1 1 4 4 5 1 2 3 5 9 7 4 14 20 8 11 5 10 5 11 8 6 3 8
29 26 25 21 19 23 20 18 12 17 14 9 10 10 9 7 11 5 3 4 5 2 1 1 4 5 6 4 3 4 4 5 9 12 10 6 11 1 7 6 1 2 6
31 27 26 24 18 19 24 20 17 18 13 14 11 9 6 4 6 11 10 6 5 8 8 5 4 4 2 4 5 6 5 4 8 10 11 9 13 8 3 5 2 1 14
Wind_Direction
127 115 103 98 87 89 114 97 90 89 101 109 110 107 108 109 108 106 108 109 111 111 113 111 108 109 102 99 98 99 97 95 96 107 107 100 99 96 95 81 94 98 102
126 123 120 112 98 87 89 90 99 125 129 123 121 114 112 111 112 111 112 111 113 113 111 113 112 109 108 109 111 109 106 99 91 81 91 96 96 92 86 71 92 97 99
128 126 127 119 115 109 98 112 124 129 126 124 121 116 114 116 116 116 115 113 111 115 112 113 114 112 114 115 115 109 103 94 90 74 74 81 90 93 94 97 99 94 91
129 126 127 124 127 125 123 128 133 128 126 124 119 116 116 117 118 117 118 114 113 111 115 114 113 114 117 116 115 105 100 90 90 90 70 56 93 97 100 93 88 89 90
132 126 129 134 127 129 132 134 132 129 125 122 119 118 120 117 116 115 116 116 118 117 114 114 115 120 125 118 109 98 99 96 89 94 102 48 87 92 90 91 84 73 70
134 135 135 130 130 131 133 133 132 131 126 125 123 123 122 118 118 115 114 117 120 120 119 116 117 120 123 123 113 103 96 96 106 99 297 44 95 95 89 86 86 85 87
140 145 137 134 134 135 135 137 135 129 129 124 123 129 130 127 123 118 117 120 118 117 117 116 119 122 130 128 122 116 116 126 132 62 88 113 106 98 95 92 89 87 81
141 141 141 138 136 136 135 137 136 135 130 128 131 129 134 132 127 123 121 119 114 112 110 113 115 119 124 136 128 117 116 122 123 29 93 107 107 103 97 92 85 77 70
133 141 140 140 137 135 135 136 135 136 132 126 120 120 129 134 129 127 124 120 117 112 112 110 106 106 110 127 131 127 119 119 116 70 95 109 106 98 93 87 79 71 62
119 139 141 140 139 136 136 135 135 132 123 122 125 121 124 135 133 127 125 123 114 112 106 103 102 104 104 109 120 118 124 130 94 45 101 107 101 98 91 84 75 64 56
144 131 130 134 138 137 133 127 125 124 127 129 122 116 107 103 127 130 131 123 114 111 110 101 105 111 110 107 111 125 134 145 140 37 111 110 104 96 87 79 66 55 47
150 141 153 153 141 139 133 132 127 126 124 125 119 112 105 95 89 117 119 119 112 112 112 100 96 103 116 104 99 97 127 168 138 26 126 112 102 91 80 68 55 42 33
144 119 155 161 144 123 134 130 121 126 133 134 112 104 108 97 94 144 124 115 111 122 98 85 75 97 83 94 125 133 135 130 84 148 124 113 102 90 74 59 42 22 7
160 148 154 157 149 164 151 140 128 117 124 147 138 132 118 160 180 119 134 131 104 101 94 89 86 76 55 61 137 137 153 174 80 26 130 116 100 80 58 35 22 9 359
143 137 146 154 158 166 168 164 161 142 143 155 152 150 158 102 88 89 170 162 128 97 83 71 73 99 84 91 119 104 158 189 340 20 121 98 75 51 45 27 13 3 352
140 142 139 130 154 150 173 162 170 172 168 140 129 121 102 122 116 219 211 222 236 260 281 323 74 91 96 106 114 189 187 156 203 59 64 10 7 3 6 12 11 8 14
155 151 149 158 161 149 135 144 142 147 168 166 140 146 121 164 167 199 179 223 230 165 137 171 217 252 176 160 165 173 170 206 211 248 315 315 328 331 346 344 359 3 13
156 157 155 170 170 175 158 142 158 163 152 168 113 151 193 147 164 202 190 228 207 235 218 159 163 135 188 113 141 165 38 53 69 217 267 295 298 292 307 315 350 6 15
159 153 156 148 151 146 154 169 173 156 159 163 163 89 105 148 188 282 190 222 222 269 189 175 208 280 220 240 222 211 202 224 273 256 272 264 261 276 273 340 27 12 11
153 154 168 156 157 157 153 149 154 159 133 133 156 148 168 136 352 347 261 67 205 227 205 161 102 23 231 254 222 206 206 210 246 272 296 296 305 286 344 60 25 6 5
179 168 165 169 165 161 162 170 169 159 150 149 178 163 149 156 175 51 11 82 120 200 167 138 305 30 230 229 226 205 215 235 267 272 285 286 315 331 112 68 19 33 22
182 176 167 183 182 167 178 177 159 150 146 169 172 126 152 122 90 151 358 180 142 147 107 19 12 288 265 313 51 300 288 252 274 305 331 292 270 1 59 30 20 48 45
175 183 172 189 187 182 186 175 166 169 180 176 191 207 150 132 175 124 129 174 140 107 89 58 189 335 295 267 45 342 350 356 337 327 359 19 42 277 307 81 351 229 24
184 183 187 196 200 195 190 195 174 165 168 178 189 165 153 164 204 158 241 154 2 104 95 89 132 252 296 265 290 245 6 355 304 303 17 30 25 190 356 55 2 352 15
187 188 191 196 199 196 197 185 172 180 179 181 184 175 166 147 164 183 242 314 288 290 329 199 260 277 317 321 331 10 26 196 285 271 26 36 6 267 28 44 165 30 28
189 188 195 200 202 197 197 198 186 189 192 197 168 168 176 151 166 183 189 255 285 238 252 281 278 281 261 284 284 285 298 311 356 1 341 27 16 22 116 228 268 50 338